Location: Milton
(43.5183°N, 79.8775°W)
Time: 10:10:44
(UTC+00:00)

COSMOS 2251 DEB - Pass Details

Date: 16 December 2023
Orbit: 708 x 767 km, 74.0° (Epoch: 04 March)

Event Time Altitude Azimuth Distance (km) Brightness Sun altitude
Rises 00:56:41 0° 206° (SSW) 3,096 ? -34.0°
Reaches altitude 10° 00:59:00 10° 208° (SSW) 2,186 ? -34.4°
Enters shadow 00:59:40 14° 210° (SSW) 1,927 ? -34.5°
